[[{"header":{"parameterUnit":"m.s-1","parameterCategory":1,"la1":30.2991,"la2":30.254,"lo1":-89.0895,"lo2":-89.0444,"dy":0.0017,"dx":0.0017,"nx":28,"ny":28,"refTime":"2023-10-15T09:00:00:Z","depth":0,"parameterNumber":2,"parameterNumberName":"U-component_of_WINDS"},"data":[0,0,0,0,0,0,0,0,0,0,0,0,0,0,0,0,0,0,0,0,0,0,0,0,0,0,0,0,0,0,0,0,0,0,0,0,0,0,0,0,0,0,0,0,0,0,0,0,0,0,0,0,0,0,0,0,0,0,2.5775,2.5774,0,2.5758,2.5757,2.5757,2.572,2.5719,2.5719,2.5718,2.5701,2.5701,2.5702,0,0,0,0,0,0,0,0,0,0,0,0,0,2.5776,2.5776,2.5775,2.5774,2.5774,2.5758,2.5757,2.5757,2.572,2.5719,2.5718,2.5718,2.5701,2.5701,2.5702,0,0,0,0,0,0,0,0,0,0,0,0,0,2.5769,2.5776,2.5775,2.5754,2.5752,2.5758,2.5757,2.5757,2.572,2.5719,2.5718,2.5717,2.5701,2.5701,2.5702,2.5727,0,0,2.5703,2.5703,0,0,0,0,0,0,0,0,2.5769,2.5769,2.5757,2.5755,2.5753,2.574,2.5752,2.5747,2.5721,2.5732,2.5718,2.5717,2.5715,2.5714,2.5713,2.5726,2.5725,2.5703,2.5703,2.5703,2.5703,0,0,0,0,0,0,0,2.577,2.5769,2.5768,2.5757,2.5754,2.5746,2.5743,2.5751,2.573,2.5731,2.5728,2.5727,2.5714,2.5713,2.5713,2.5725,2.5703,2.5703,2.5703,2.5704,2.5758,2.5759,0,0,0,0,0,0,2.5773,2.577,2.5768,2.5767,2.5758,2.5746,2.5744,2.5745,2.573,2.5727,2.5728,2.5725,2.5713,2.5712,2.5712,2.574,2.5703,2.5704,2.5704,2.5756,2.5758,2.5759,0,0,0,0,0,0,2.5773,2.5773,2.5769,2.5768,2.5767,2.5748,2.5749,2.5745,2.5745,2.5728,2.5724,2.5731,2.5712,2.5711,2.5723,2.5739,2.5704,2.5704,2.5755,2.5757,2.5758,2.5796,0,0,0,0,0,0,2.5773,2.5774,2.5783,2.5768,2.5767,2.578,2.575,2.5746,2.5746,2.5742,2.573,2.5726,2.5711,2.5723,2.5724,2.5739,2.5704,2.5753,2.5756,2.5758,2.5793,2.5799,2.5804,0,0,0,0,0,2.5774,2.5794,2.5783,2.5783,2.5778,2.5781,2.578,2.5762,2.5747,2.5756,2.5745,2.5727,2.5738,2.5725,2.5725,2.574,2.5752,2.5755,2.5758,2.5791,2.5798,2.5804,0,0,0,0,0,0,2.581,2.5792,2.5779,2.5796,2.579,2.5775,2.5786,2.577,2.5769,2.5766,2.5744,2.5741,2.5756,2.575,2.5736,2.5764,2.5742,2.5745,2.5767,2.5774,2.5779,2.5779,2.5705,0,0,0,0,0,2.582,2.5825,2.5808,2.5824,2.5822,2.5805,2.5806,2.5792,2.5786,2.5783,2.5773,2.5768,2.577,2.5772,2.5773,2.5793,2.579,2.5804,2.5809,2.5814,2.5816,2.5826,2.5832,2.5768,2.5768,2.5768,0,0,2.5841,2.5831,2.5835,2.5831,2.5826,2.5831,2.5803,2.5809,2.5813,2.5784,2.5794,2.5787,2.578,2.5796,2.5803,2.5791,2.5833,2.5817,2.5821,2.582,2.5829,2.5835,2.5841,2.577,2.5769,2.5769,0,0,2.588,2.5874,2.5886,2.5881,2.5873,2.5862,2.5865,2.5852,2.5846,2.5856,2.5835,2.5839,2.5844,2.5839,2.5837,2.5877,2.586,2.5878,2.5905,2.5915,2.592,2.5924,2.5937,2.5942,2.5881,2.5881,2.5881,0,2.5906,2.5913,2.5894,2.5902,2.5901,2.5876,2.5889,2.5885,2.5878,2.5878,2.5866,2.587,2.5864,2.5878,2.5888,2.5888,2.5891,2.5879,2.5921,2.5925,2.5929,2.5941,2.5946,2.5883,2.5883,2.5883,2.5883,0,2.5945,2.5951,2.5962,2.5955,2.5956,2.5966,2.5949,2.5952,2.594,2.593,2.594,2.5932,2.5931,2.5934,2.5921,2.5947,2.594,2.5925,2.5902,2.5937,2.5948,2.5953,2.5886,2.5886,2.5885,2.5885,0,0,2.6005,2.5989,2.5994,2.599,2.5981,2.5984,2.5994,2.5993,2.5995,2.5992,2.5999,2.6004,2.599,2.5988,2.5976,2.5985,2.6016,2.5968,2.5968,2.5976,2.6043,2.6053,2.6059,2.6006,2.6006,2.6007,2.6043,0,2.6041,2.6055,2.604,2.6058,2.6062,2.604,2.6048,2.6043,2.6035,2.6038,2.6028,2.6032,2.6013,2.6012,2.602,2.601,2.6029,2.6008,2.6011,2.6012,2.6012,2.6065,2.6075,2.6109,2.6047,2.6048,2.6048,0,2.6084,2.6082,2.6101,2.609,2.6091,2.6099,2.6097,2.61,2.6095,2.6088,2.6087,2.6072,2.6081,2.606,2.6072,2.6058,2.6059,2.6055,2.6056,2.6054,2.6031,2.6063,2.612,2.6124,2.6055,2.6055,2.6054,0,2.6124,2.6127,2.6138,2.6137,2.6125,2.6131,2.6126,2.6119,2.612,2.6119,2.6119,2.6119,2.6119,2.6119,2.6105,2.6091,2.6119,2.6097,2.6113,2.6113,2.6117,2.6117,2.6174,2.6121,2.6121,2.6121,2.6121,0,2.6164,2.6176,2.6156,2.6163,2.6176,2.6158,2.6172,2.6165,2.616,2.6165,2.6146,2.6152,2.6133,2.6137,2.6126,2.6137,2.6138,2.6132,2.6129,2.6133,2.6133,2.6131,2.6128,2.6122,2.6122,2.6122,2.6122,0,2.621,2.6197,2.6208,2.6196,2.6194,2.6204,2.6194,2.62,2.6191,2.6198,2.6199,2.6185,2.6188,2.6174,2.6176,2.6168,2.6185,2.6178,2.6186,2.6184,2.62,2.6198,2.6256,2.6262,2.6207,2.6208,2.6208,0,2.6236,2.6244,2.6234,2.6236,2.6233,2.6237,2.6237,2.6221,2.6223,2.6218,2.6224,2.6227,2.6227,2.6234,2.6223,2.6224,2.6217,2.6237,2.6217,2.6221,2.6215,2.6214,2.6215,2.6241,2.6242,2.6242,2.6243,0,2.6282,2.6276,2.6277,2.6277,2.6278,2.6277,2.6275,2.6278,2.6261,2.6264,2.6267,2.6268,2.6269,2.6271,2.627,2.6266,2.6251,2.625,2.6253,2.6256,2.626,2.6257,2.6196,2.6248,2.6247,2.6247,2.6246,2.6246,2.6317,2.6324,2.6318,2.632,2.6317,2.6316,2.6321,2.6313,2.6315,2.6315,2.6306,2.6311,2.6306,2.6304,2.6301,2.6305,2.6295,2.6301,2.6302,2.6303,2.6305,2.6261,2.6305,2.6305,2.6305,2.6305,2.6304,0,2.6362,2.6357,2.636,2.6357,2.6359,2.6347,2.6344,2.6346,2.6351,2.6348,2.6349,2.6353,2.6355,2.6346,2.6347,2.6352,2.6346,2.6353,2.6351,2.6351,2.6314,2.631,2.6358,2.6358,2.6358,2.6358,2.6358,2.6358,2.6385,2.6395,2.6388,2.6397,2.6392,2.6397,2.6396,2.6395,2.6392,2.6398,2.64,2.6394,2.6388,2.6389,2.6391,2.6388,2.6389,2.6398,2.6393,2.6358,2.6353,2.6348,2.6344,2.6399,2.6399,2.6429,2.6429,2.6429]},{"header":{"parameterUnit":"m.s-1","parameterCategory":1,"la1":30.2991,"la2":30.254,"lo1":-89.0895,"lo2":-89.0444,"dy":0.0017,"dx":0.0017,"nx":28,"ny":28,"refTime":"2023-10-15T09:00:00:Z","depth":0,"parameterNumber":3,"parameterNumberName":"V-component_of_WINDS"},"data":[0,0,0,0,0,0,0,0,0,0,0,0,0,0,0,0,0,0,0,0,0,0,0,0,0,0,0,0,0,0,0,0,0,0,0,0,0,0,0,0,0,0,0,0,0,0,0,0,0,0,0,0,0,0,0,0,0,0,-5.7179,-5.7181,0,-5.7382,-5.7384,-5.7386,-5.7319,-5.7315,-5.7311,-5.7306,-5.7509,-5.7519,-5.7528,0,0,0,0,0,0,0,0,0,0,0,0,0,-5.673,-5.6739,-5.7179,-5.7181,-5.7184,-5.7381,-5.7384,-5.7387,-5.732,-5.7315,-5.731,-5.7305,-5.7506,-5.7517,-5.7529,0,0,0,0,0,0,0,0,0,0,0,0,0,-5.6928,-5.6741,-5.7178,-5.7174,-5.7176,-5.7381,-5.7384,-5.7387,-5.7321,-5.7315,-5.7308,-5.7302,-5.7503,-5.7516,-5.753,-5.7749,0,0,-5.7574,-5.758,0,0,0,0,0,0,0,0,-5.6917,-5.6944,-5.7172,-5.7175,-5.7177,-5.7319,-5.73,-5.7509,-5.7323,-5.7266,-5.7306,-5.7299,-5.7451,-5.7469,-5.7521,-5.7759,-5.7767,-5.7575,-5.7584,-5.759,-5.7594,0,0,0,0,0,0,0,-5.6903,-5.6935,-5.7259,-5.7176,-5.7179,-5.7161,-5.7182,-5.7339,-5.7393,-5.727,-5.7266,-5.7291,-5.7451,-5.7508,-5.7525,-5.777,-5.7575,-5.7587,-5.7596,-5.7602,-5.8199,-5.8206,0,0,0,0,0,0,-5.6889,-5.6924,-5.7252,-5.7265,-5.7028,-5.7175,-5.7198,-5.728,-5.7391,-5.7401,-5.7297,-5.7287,-5.7487,-5.7509,-5.7532,-5.7798,-5.759,-5.7603,-5.7611,-5.8192,-5.8201,-5.8209,0,0,0,0,0,0,-5.6879,-5.6919,-5.7244,-5.7094,-5.7134,-5.719,-5.7282,-5.7287,-5.7344,-5.7411,-5.7419,-5.7345,-5.7482,-5.7512,-5.7697,-5.7804,-5.7609,-5.7622,-5.8183,-5.8195,-5.8205,-5.8329,0,0,0,0,0,0,-5.6867,-5.6916,-5.7,-5.7096,-5.7142,-5.7407,-5.7288,-5.7296,-5.7369,-5.7359,-5.7458,-5.7469,-5.7479,-5.7676,-5.7711,-5.782,-5.7633,-5.8174,-5.8188,-5.8201,-5.8316,-5.8343,-5.8366,0,0,0,0,0,-5.6851,-5.7026,-5.7005,-5.7045,-5.7249,-5.7413,-5.7439,-5.745,-5.7378,-5.7463,-5.7506,-5.7465,-5.7786,-5.7695,-5.7734,-5.7849,-5.8167,-5.8184,-5.82,-5.8304,-5.8338,-5.8366,0,0,0,0,0,0,-5.6939,-5.7038,-5.7016,-5.7227,-5.7313,-5.7401,-5.7509,-5.7484,-5.759,-5.7576,-5.7582,-5.7605,-5.7795,-5.784,-5.7737,-5.8067,-5.7966,-5.7991,-5.8032,-5.8064,-5.8089,-5.8075,-5.7645,0,0,0,0,0,-5.6983,-5.7109,-5.7188,-5.7367,-5.7411,-5.7453,-5.7525,-5.7526,-5.7613,-5.7648,-5.7705,-5.779,-5.791,-5.7989,-5.8103,-5.8321,-5.8342,-5.8419,-5.8445,-5.8465,-5.8487,-5.8608,-5.8643,-5.8263,-5.8263,-5.8263,0,0,-5.7075,-5.7145,-5.7224,-5.7387,-5.7453,-5.7582,-5.7484,-5.7624,-5.7721,-5.7669,-5.7848,-5.7892,-5.7988,-5.8191,-5.8283,-5.8234,-5.8597,-5.8486,-5.8502,-5.8513,-5.8628,-5.8664,-5.8696,-5.8274,-5.8272,-5.8271,0,0,-5.731,-5.7376,-5.7533,-5.7601,-5.7703,-5.773,-5.7768,-5.7862,-5.789,-5.807,-5.8034,-5.8147,-5.8354,-5.8424,-5.8487,-5.875,-5.8717,-5.8787,-5.892,-5.9037,-5.9067,-5.9093,-5.9189,-5.9223,-5.8808,-5.8808,-5.8809,0,-5.7412,-5.7608,-5.7616,-5.7761,-5.7834,-5.7795,-5.7954,-5.802,-5.8153,-5.8204,-5.8147,-5.8407,-5.8468,-5.8688,-5.8753,-5.8804,-5.8848,-5.8776,-5.9062,-5.9089,-5.9114,-5.9205,-5.9241,-5.8816,-5.8815,-5.8815,-5.8814,0,-5.7728,-5.7864,-5.7978,-5.8111,-5.8196,-5.8347,-5.8378,-5.8463,-5.8457,-5.849,-5.8673,-5.8746,-5.8875,-5.8926,-5.892,-5.9146,-5.9113,-5.9059,-5.8958,-5.9158,-5.9244,-5.9279,-5.8828,-5.8825,-5.8823,-5.8821,0,0,-5.8025,-5.8161,-5.8203,-5.8264,-5.8374,-5.8479,-5.8628,-5.8756,-5.883,-5.8922,-5.9048,-5.9224,-5.9176,-5.9248,-5.9249,-5.9352,-5.9558,-5.9285,-5.9288,-5.9335,-5.9813,-5.9854,-5.9894,-5.9536,-5.9542,-5.9548,-5.9805,0,-5.827,-5.8535,-5.8548,-5.8788,-5.8914,-5.8879,-5.9009,-5.9091,-5.9125,-5.9236,-5.9273,-5.9399,-5.9325,-5.9368,-5.9468,-5.9512,-5.9654,-5.9493,-5.9653,-5.9658,-5.9632,-5.9939,-5.9983,-6.0222,-5.9839,-5.9844,-5.9848,0,-5.8593,-5.8699,-5.8953,-5.9046,-5.91,-5.9217,-5.9336,-5.9443,-5.9534,-5.9552,-5.9633,-5.962,-5.9772,-5.9664,-5.9874,-5.9764,-5.983,-5.9861,-5.9871,-5.9887,-5.9767,-5.9965,-6.0299,-6.0336,-5.9901,-5.9897,-5.9893,0,-5.8786,-5.8992,-5.9171,-5.9223,-5.9337,-5.942,-5.9471,-5.9556,-5.9632,-5.9736,-5.9786,-5.9904,-5.997,-6.0062,-6.0081,-6.0001,-6.0292,-6.0186,-6.0311,-6.0311,-6.0376,-6.0372,-6.0726,-6.0415,-6.0415,-6.0414,-6.0413,0,-5.9061,-5.9218,-5.926,-5.937,-5.9545,-5.9557,-5.973,-5.9774,-5.985,-5.9968,-5.9943,-6.0054,-6.0072,-6.0187,-6.0202,-6.0375,-6.0404,-6.0423,-6.0425,-6.0426,-6.0424,-6.0471,-6.0455,-6.0423,-6.0421,-6.0419,-6.0418,0,-5.9307,-5.9342,-5.9535,-5.9627,-5.9654,-5.9779,-5.9857,-5.9962,-5.9994,-6.0144,-6.0179,-6.0229,-6.0363,-6.0391,-6.0549,-6.0559,-6.0765,-6.075,-6.0736,-6.0735,-6.086,-6.0849,-6.1258,-6.1313,-6.0964,-6.0968,-6.097,0,-5.9481,-5.9602,-5.9707,-5.9786,-5.9841,-5.9967,-6.0046,-6.0062,-6.0145,-6.0259,-6.0351,-6.0482,-6.0588,-6.0804,-6.0853,-6.0974,-6.0963,-6.1098,-6.0981,-6.0979,-6.0968,-6.0961,-6.0974,-6.1121,-6.1125,-6.1128,-6.1131,0,-5.9787,-5.9798,-5.9914,-6.0036,-6.0132,-6.0228,-6.032,-6.0385,-6.0413,-6.0508,-6.0646,-6.0728,-6.0891,-6.1022,-6.1144,-6.1194,-6.1168,-6.1167,-6.1203,-6.1206,-6.1194,-6.1204,-6.0799,-6.1158,-6.1155,-6.1153,-6.1152,-6.1151,-6.0004,-6.011,-6.0202,-6.0332,-6.0403,-6.049,-6.0594,-6.064,-6.0756,-6.0891,-6.0892,-6.1044,-6.1132,-6.1293,-6.1351,-6.1468,-6.1426,-6.1477,-6.1491,-6.1504,-6.1517,-6.1174,-6.149,-6.1489,-6.1489,-6.1488,-6.1487,0,-6.031,-6.0367,-6.0487,-6.0617,-6.072,-6.0687,-6.0787,-6.0875,-6.1009,-6.1094,-6.12,-6.1359,-6.1487,-6.1547,-6.1673,-6.1755,-6.1747,-6.1788,-6.1783,-6.1796,-6.1546,-6.1504,-6.1793,-6.1793,-6.1793,-6.1793,-6.1793,-6.1793,-6.0481,-6.066,-6.0683,-6.0897,-6.0952,-6.1102,-6.1162,-6.1242,-6.1311,-6.149,-6.1597,-6.1636,-6.1711,-6.1843,-6.1958,-6.1972,-6.202,-6.2068,-6.2077,-6.1844,-6.1813,-6.1783,-6.1743,-6.2078,-6.2079,-6.2317,-6.2319,-6.232]}]]